Location: Cluny
(50.9333°N, 112.8167°W)
Time: 23:21:43
(UTC-06:00)

Hamsat - Visible Passes

Search period start: 21 August 2017 00:00
Search period end: 31 August 2017 00:00
Orbit: 586 x 617 km, 97.7° (Epoch: 21 August)

Date Brightness Start Highest point End Pass type
(mag) Time Alt. Az. Time Alt. Az. Time Alt. Az.
21 Aug ? 04:37:02 10° NE 04:40:14 20° E 04:43:24 10° SE visible
22 Aug ? 04:48:26 10° NE 04:52:02 25° E 04:55:35 10° SSE visible
23 Aug ? 04:59:55 10° NNE 05:03:49 32° E 05:07:40 10° SSE visible
24 Aug ? 05:11:28 10° NNE 05:15:34 41° E 05:19:37 10° SSE visible
25 Aug ? 05:23:04 10° NNE 05:27:19 53° E 05:31:30 10° S visible
26 Aug ? 05:34:42 10° NNE 05:39:02 69° ESE 05:43:17 10° S visible
27 Aug ? 04:12:49 10° ENE 04:14:17 11° E 04:15:45 10° ESE visible
27 Aug ? 05:46:23 10° NNE 05:50:44 89° ESE 05:55:00 10° SSW visible
28 Aug ? 04:23:39 10° NE 04:26:08 15° E 04:28:35 10° ESE visible
28 Aug ? 05:58:06 10° N 06:02:24 71° WNW 06:06:39 10° SSW visible
29 Aug ? 04:34:52 10° NE 04:37:57 19° E 04:41:00 10° SE visible
30 Aug ? 04:46:14 10° NE 04:49:44 24° E 04:53:13 10° SSE visible
